Theta_e
338 339 340 340 340 339 339 339 341 341 341 341 341 341 341 341 340 340 339 339 338 338 337 337 336 336 336 336 337 336 336 337 336 337 336 336 336 336 336 336 336 336 335 334 332 331 329 329 328 326 326 331
336 338 339 339 338 339 340 340 341 340 340 339 339 339 339 339 340 340 339 339 338 338 336 335 335 335 335 335 335 335 335 335 335 335 335 335 336 335 334 334 334 334 334 332 330 329 327 326 325 325 325 332
338 333 335 336 337 338 338 338 337 337 336 336 336 334 333 333 334 334 335 336 336 335 335 334 335 335 335 334 335 334 334 334 334 334 334 335 334 334 333 332 332 332 331 330 328 326 323 322 322 321 326 330
338 331 330 333 334 334 335 334 334 333 331 329 328 328 329 328 331 329 330 326 331 330 331 331 332 334 335 335 335 334 334 334 334 334 334 335 333 332 330 329 327 327 328 328 326 324 320 319 320 328 327 326
333 332 330 330 329 329 330 330 330 328 323 323 323 325 323 325 330 330 329 329 329 324 328 322 324 333 334 334 334 334 334 334 334 334 334 333 332 330 327 322 320 320 322 324 323 322 317 315 325 324 324 324
331 331 330 334 334 333 329 325 324 327 329 326 327 318 324 326 326 326 326 326 324 324 325 325 321 324 332 333 332 333 333 333 333 332 332 330 329 327 323 318 323 322 318 318 319 316 313 322 322 322 322 325
330 330 331 330 329 329 325 327 326 327 326 325 323 323 323 323 324 324 324 324 322 320 316 321 319 322 326 327 326 327 328 327 327 328 327 326 324 322 319 321 321 322 323 324 316 315 321 323 323 322 322 324
329 329 330 329 327 327 325 325 325 324 325 325 323 323 323 322 320 321 322 321 321 319 321 320 318 318 319 321 320 319 320 317 318 320 320 317 318 317 318 323 320 321 326 326 324 325 324 324 323 323 323 323
328 328 328 328 327 326 326 324 323 323 325 324 323 322 323 320 319 321 321 321 319 320 319 320 319 321 321 320 323 318 322 318 319 318 320 318 318 318 320 323 322 321 325 324 322 323 322 321 320 321 321 321
328 327 327 327 327 326 325 325 324 322 323 322 321 322 321 320 321 320 320 319 318 320 320 321 321 318 318 318 322 319 320 319 318 319 318 317 320 318 317 319 319 319 318 322 323 322 322 321 321 321 321 321
328 328 328 328 326 326 325 324 324 324 323 323 323 321 321 324 321 320 320 320 318 321 315 320 319 320 315 318 321 320 320 319 318 319 319 319 319 319 321 322 321 321 320 320 321 323 323 322 321 321 322 322
327 328 328 328 325 326 325 324 325 324 325 323 323 322 323 323 323 323 323 320 320 320 316 319 318 316 318 317 318 320 319 320 321 321 321 322 323 324 324 323 322 321 321 321 320 321 323 323 323 322 322 321
327 327 328 327 327 326 323 324 325 325 323 324 323 323 323 324 325 322 323 322 321 318 321 318 317 318 319 318 320 319 319 319 322 323 323 324 324 323 323 322 322 321 321 321 320 321 322 322 321 321 321 322
326 326 326 327 327 327 325 325 324 323 324 324 323 323 322 324 326 326 326 324 320 321 321 318 317 319 320 321 320 319 321 319 321 324 324 323 323 322 322 321 322 320 322 322 323 322 321 321 320 321 321 321
325 325 325 325 326 326 326 326 324 323 324 324 323 324 322 323 324 325 324 324 322 320 322 321 321 322 319 321 323 320 321 320 322 322 323 323 323 323 322 322 321 320 321 322 322 322 321 321 320 320 320 320
325 325 325 325 325 325 326 325 324 324 324 323 324 323 324 323 324 323 324 323 322 323 322 323 322 321 321 324 323 321 322 322 321 322 322 320 319 319 319 321 321 321 320 321 321 321 320 320 319 319 319 318
325 325 325 325 324 324 324 324 324 324 325 325 325 323 324 324 324 323 324 323 323 321 323 322 322 322 321 322 322 321 321 321 319 319 320 321 318 318 319 319 321 321 320 320 320 319 319 319 319 319 319 319
326 325 325 325 325 325 325 325 325 325 325 325 325 325 324 324 323 323 323 323 321 322 322 321 321 322 322 321 320 319 319 320 320 321 321 322 320 319 319 320 320 319 320 320 319 319 319 319 319 319 319 320
327 326 326 326 326 325 326 325 326 326 325 324 325 325 325 324 324 323 323 322 323 322 322 322 322 320 322 322 321 321 320 321 321 321 321 321 322 321 320 320 320 319 319 318 319 319 319 319 320 321 321 320
328 328 327 327 324 327 326 326 326 326 326 325 325 325 325 324 324 323 322 322 322 323 322 323 323 325 324 323 324 323 322 321 323 322 322 321 321 321 322 320 321 319 318 317 317 319 320 320 320 321 321 320
328 328 327 327 326 327 326 326 327 327 327 326 325 325 326 325 324 324 323 323 323 325 323 323 325 327 326 324 326 326 324 323 323 323 322 322 320 320 320 319 319 319 320 319 318 320 320 321 321 321 321 319
328 328 328 328 327 325 326 326 327 327 326 326 325 325 326 326 325 324 324 324 324 326 325 326 327 328 327 326 325 324 323 324 321 321 321 322 319 320 319 320 320 320 320 320 320 320 321 321 321 320 320 317
329 329 329 328 326 325 326 326 327 326 326 327 326 326 326 326 325 325 326 326 326 326 326 326 326 327 327 328 327 323 321 322 322 320 319 320 320 317 318 319 319 320 318 317 319 319 320 320 320 320 317 315
327 327 325 324 323 324 324 326 325 325 327 327 328 327 326 326 326 326 328 328 327 327 327 327 327 327 328 325 325 324 323 322 323 323 320 321 320 321 319 314 316 318 318 319 319 319 320 320 319 319 315 316
326 324 324 325 324 324 325 325 327 326 327 328 329 329 328 327 327 327 328 327 328 327 324 327 329 328 327 324 324 324 325 324 323 320 320 318 316 318 318 319 320 320 318 317 317 320 319 319 320 315 314 314
328 328 328 326 325 325 326 325 325 325 326 328 329 329 329 329 329 329 327 326 327 327 327 326 326 327 327 324 322 323 322 319 316 317 317 317 319 317 318 319 318 318 319 316 313 311 312 314 316 314 313 312
328 329 329 329 328 328 326 327 329 329 329 329 330 330 329 329 329 329 329 329 327 326 326 327 327 327 326 322 323 322 322 321 321 320 319 318 319 319 316 317 316 318 318 314 314 313 311 309 308 312 314 312
330 330 329 329 328 328 327 324 324 327 327 329 329 329 329 330 330 330 331 330 328 327 328 327 327 327 323 321 323 324 323 322 322 320 319 318 318 319 317 317 317 314 316 316 316 309 308 308 306 305 309 308
327 325 324 322 321 322 322 321 323 324 324 326 327 328 327 329 328 329 330 330 329 327 327 326 327 326 325 324 323 323 322 321 321 321 320 319 318 318 318 315 316 316 315 315 318 314 310 307 305 305 307 308
326 325 325 323 323 321 322 322 320 322 323 322 324 327 329 328 328 328 328 328 328 327 325 326 326 325 325 324 322 322 321 320 318 318 319 319 319 318 318 317 313 312 312 313 315 315 314 312 307 305 307 305
325 326 326 325 326 326 325 324 324 326 327 327 327 327 326 326 325 327 327 325 326 326 324 325 324 323 322 322 321 319 320 318 317 316 316 315 315 315 315 314 311 310 311 313 312 311 310 310 308 309 306 301
Wind_Speed
10 10 10 10 10 10 9 10 11 11 12 13 14 14 14 13 11 12 13 13 13 12 11 11 10 10 10 11 11 11 11 11 11 10 10 10 10 11 11 11 11 10 10 10 9 9 9 8 6 6 4 3
10 10 10 10 9 9 10 11 10 10 11 12 12 12 11 11 11 12 13 13 12 12 11 10 10 9 9 9 10 10 10 10 10 10 10 10 10 11 11 11 11 11 10 10 10 8 9 8 6 6 4 3
7 10 9 9 10 10 10 9 10 9 9 10 9 9 11 11 11 10 11 11 10 9 8 8 7 8 8 8 9 9 10 10 10 9 9 10 10 10 11 11 10 10 10 9 9 9 9 8 6 7 4 4
5 7 9 9 9 10 9 9 8 8 9 9 10 10 10 9 9 8 8 10 8 8 7 6 6 6 7 8 8 9 9 9 8 8 9 10 10 10 9 9 9 9 9 8 8 8 8 8 5 4 2 4
5 6 8 7 9 9 9 9 9 8 9 8 8 8 8 7 5 5 5 6 5 7 6 7 7 7 7 8 7 8 8 8 8 9 9 9 9 9 9 8 8 9 9 8 8 8 7 6 3 3 2 2
5 5 5 6 5 5 6 6 6 5 5 4 4 6 5 4 4 4 4 4 5 4 4 6 7 6 7 9 9 9 9 9 9 9 9 9 9 8 8 8 5 5 5 7 7 7 5 5 2 2 2 2
5 5 5 5 4 4 4 5 6 4 4 3 4 4 4 4 4 4 4 4 4 4 6 5 7 7 9 9 9 8 7 7 7 8 8 8 8 7 7 5 4 3 2 2 4 4 3 2 2 2 2 2
5 4 4 4 4 4 3 3 3 4 3 3 3 3 3 3 3 3 3 5 6 4 3 3 5 7 7 7 7 6 3 4 6 6 7 7 6 4 3 3 3 3 2 2 2 2 2 2 2 2 2 2
5 5 4 3 4 4 3 3 3 3 2 3 3 3 3 3 3 3 2 2 2 2 2 2 2 2 3 3 3 5 2 2 3 3 3 4 5 3 3 3 3 3 3 2 2 2 2 2 2 2 1 2
5 5 5 4 4 4 3 3 3 3 2 2 2 2 2 3 3 2 2 1 2 2 2 2 2 1 1 2 2 2 2 1 2 2 2 3 3 2 1 2 1 1 1 2 2 2 2 2 3 2 2 2
5 5 4 4 4 4 4 3 4 3 3 2 2 2 2 3 2 2 1 1 1 1 1 1 0 0 0 1 1 1 1 1 1 2 2 2 2 1 1 2 1 1 1 2 3 3 2 2 2 2 3 3
5 5 5 5 4 4 4 4 4 3 3 3 3 3 2 2 2 2 2 1 1 1 0 0 0 0 0 0 0 0 0 1 1 1 1 1 2 2 2 2 3 2 1 1 1 3 3 3 3 3 3 3
5 5 5 5 5 5 4 4 4 3 3 3 3 3 3 3 2 1 1 1 2 1 2 1 1 1 1 0 0 0 1 1 2 1 1 1 2 2 2 2 2 2 2 1 2 2 3 3 3 3 3 3
6 6 6 6 6 5 4 5 3 3 3 3 3 3 3 3 2 3 2 2 2 2 2 2 1 1 1 0 0 0 1 0 0 1 1 1 2 2 2 2 1 2 3 3 2 1 2 3 3 3 3 4
6 6 6 6 6 6 5 5 4 3 3 3 3 4 4 4 3 2 2 2 2 2 1 1 1 1 0 1 1 1 2 1 2 1 2 2 2 2 2 3 2 2 3 3 3 2 3 3 3 4 3 4
7 7 6 6 5 6 6 6 5 4 4 4 4 4 4 4 4 3 2 3 2 2 2 2 2 1 1 2 1 2 2 2 2 2 2 2 2 2 2 3 3 2 2 3 3 3 4 3 3 4 4 4
7 6 6 6 7 7 7 6 6 5 5 5 4 4 4 4 4 3 4 3 3 3 2 2 2 2 2 2 1 1 2 2 1 1 2 2 2 2 2 2 3 2 2 3 3 3 4 3 4 3 4 4
7 8 7 7 7 7 7 6 6 6 4 3 4 4 5 4 4 3 3 3 3 2 2 1 2 2 2 2 2 1 1 2 2 2 2 2 1 2 1 2 3 3 3 2 2 3 3 3 4 4 4 4
8 8 8 7 7 7 7 6 5 4 3 4 4 4 4 4 4 4 4 3 4 3 3 3 3 3 4 3 3 3 3 2 1 1 3 1 2 2 1 2 2 2 2 4 5 5 3 4 4 4 4 4
9 8 8 6 6 6 6 6 5 4 4 4 3 4 4 4 4 4 3 4 3 3 3 2 3 4 3 3 2 2 1 2 3 2 2 1 1 2 3 2 3 1 3 3 4 5 4 4 4 5 4 4
9 8 8 8 7 7 6 6 5 4 4 3 4 4 4 5 4 4 4 4 4 3 3 3 5 5 3 2 2 2 1 2 2 1 2 1 1 1 3 2 4 3 1 3 4 5 6 5 5 5 4 4
9 8 8 6 6 6 6 7 5 4 3 4 4 3 4 5 5 5 5 4 4 3 3 4 4 3 4 3 2 1 2 2 0 1 2 2 0 1 2 2 3 4 4 3 4 5 6 6 4 4 3 3
8 8 7 5 5 4 5 5 4 4 4 4 4 4 5 5 4 5 6 5 5 5 5 4 4 3 4 3 4 4 3 3 1 1 1 1 2 2 2 3 2 3 3 3 4 5 7 5 5 4 2 2
7 6 6 6 4 4 5 5 4 5 5 4 4 5 5 5 5 6 6 6 6 6 6 5 5 5 4 2 2 2 3 4 1 1 1 2 3 3 1 3 3 1 2 3 5 5 5 4 4 3 3 1
8 7 6 5 7 7 6 6 6 6 5 4 5 6 5 6 5 5 5 8 7 7 6 5 4 5 4 3 3 3 4 2 1 1 2 1 1 1 2 1 0 1 2 3 5 4 4 4 3 2 0 2
8 8 7 7 6 5 6 6 7 7 6 7 6 6 6 6 6 7 6 5 4 4 5 5 5 4 3 3 4 4 2 2 2 3 2 2 2 2 0 1 2 3 4 3 5 6 6 1 2 2 2 3
9 8 8 8 7 9 6 6 7 8 8 9 7 7 7 7 7 5 3 4 6 6 6 7 6 5 4 3 3 2 3 3 3 3 3 3 2 2 2 0 2 3 4 2 4 1 3 4 5 2 3 1
9 10 9 8 6 7 6 5 5 5 3 5 6 6 5 5 5 7 7 7 6 6 6 5 5 3 3 4 4 4 3 3 3 2 2 3 2 4 3 2 2 3 3 2 2 3 2 2 1 5 3 9
9 7 6 4 3 3 3 2 4 4 4 6 7 6 5 7 6 6 6 6 5 5 5 4 4 4 4 4 4 4 4 3 3 3 3 5 5 4 3 3 2 3 3 2 1 1 1 1 0 1 4 7
9 9 9 8 8 7 6 6 5 9 8 6 5 7 6 6 7 7 5 3 4 4 4 4 5 5 5 5 4 4 4 4 4 4 4 4 5 5 2 3 3 2 2 3 4 4 2 1 1 2 2 2
10 10 10 12 11 10 9 9 7 6 7 8 7 5 6 5 4 4 4 3 4 4 4 4 4 4 4 4 4 4 6 6 5 4 4 3 4 4 4 4 3 3 3 3 5 5 5 5 5 2 1 1
Wind_Direction
103 103 104 103 104 103 99 108 91 87 90 92 93 94 92 91 98 102 105 101 95 89 86 81 77 81 81 79 78 80 82 79 78 78 77 73 73 72 72 70 67 65 63 60 59 50 45 34 27 30 17 30
105 104 102 104 101 98 96 97 96 95 98 93 91 92 87 88 86 93 96 93 93 89 78 71 69 69 72 76 78 77 76 79 77 73 72 69 65 63 59 58 56 53 50 51 48 43 34 26 21 25 13 24
104 104 101 101 105 103 101 93 100 103 99 96 93 88 86 86 87 84 86 88 84 81 80 75 66 69 75 81 80 78 76 75 76 73 67 64 64 59 55 51 50 46 45 45 42 36 29 19 10 22 16 13
99 104 105 107 105 105 103 98 89 91 91 88 93 95 95 92 93 89 84 84 81 74 71 72 73 73 77 76 75 72 70 68 68 67 65 66 64 58 52 47 45 40 38 40 38 32 28 22 3 21 8 358
110 104 106 105 108 103 103 105 98 93 94 93 90 94 95 93 85 89 94 89 92 82 72 53 58 72 76 74 70 72 70 63 61 60 59 61 60 56 52 47 48 43 38 38 35 35 35 26 19 15 2 349
125 122 109 118 103 104 102 103 103 98 103 98 102 96 96 98 96 95 89 88 81 86 78 63 35 40 59 56 51 57 56 48 46 43 48 50 50 51 47 41 32 26 39 37 35 35 29 26 26 9 352 338
133 131 129 126 126 113 107 108 99 107 109 106 107 106 102 101 102 97 87 78 89 87 74 64 39 46 53 57 52 53 56 53 39 39 45 45 50 51 47 45 39 30 18 12 21 26 16 13 7 346 333 329
140 138 142 142 140 132 130 115 95 101 106 118 99 114 100 109 102 97 96 84 75 74 68 59 52 53 55 55 52 34 45 38 37 35 47 44 40 42 28 23 35 18 6 10 356 355 8 359 344 334 329 318
148 151 153 157 151 146 142 131 125 126 117 107 113 105 105 88 93 98 92 88 65 65 71 63 38 45 49 42 39 16 26 18 14 22 19 23 24 31 8 12 24 342 355 345 340 349 344 331 322 313 310 310
147 149 163 171 161 156 151 152 145 142 144 131 124 129 116 105 90 88 89 75 67 64 8 54 40 47 55 61 37 21 12 15 14 26 24 17 16 14 4 12 334 340 320 332 340 332 335 330 329 323 315 311
154 164 166 173 172 168 175 167 163 166 161 152 148 138 141 137 119 99 110 95 79 96 42 83 11 75 65 87 86 8 8 358 21 20 21 4 346 330 327 329 342 330 328 318 325 318 310 313 315 318 320 319
163 168 171 174 164 194 190 181 188 180 178 163 167 166 160 148 131 133 128 144 165 194 139 183 225 225 164 197 237 178 292 343 333 351 352 324 311 325 343 333 332 319 308 291 280 304 307 320 332 330 323 310
168 177 186 188 192 199 188 203 199 192 170 179 170 172 172 158 149 150 158 196 217 199 227 215 214 227 231 196 216 320 333 335 326 325 350 334 315 325 326 329 315 316 288 260 239 269 304 323 313 312 304 306
172 179 189 195 198 200 194 211 206 180 190 186 177 192 197 194 170 185 191 190 203 200 224 225 196 216 230 238 256 289 287 260 255 288 293 291 299 313 311 300 281 287 302 305 292 289 305 298 297 298 298 311
180 180 190 192 194 196 200 205 200 204 198 191 196 202 196 199 195 176 186 188 190 209 198 199 206 214 225 250 202 190 232 216 227 227 256 276 293 304 307 293 282 282 295 302 308 322 313 304 308 301 309 311
189 192 188 188 190 196 200 198 207 206 203 204 206 194 195 198 196 184 181 185 181 194 197 210 215 219 214 244 223 207 225 223 213 230 250 246 261 262 265 283 281 265 281 295 305 322 306 311 310 312 318 309
196 193 190 189 195 198 195 198 203 206 204 207 206 196 199 201 192 186 183 186 183 186 203 206 220 228 232 246 237 236 248 260 262 241 227 232 206 225 232 261 281 305 293 300 306 307 298 316 305 307 308 303
196 200 198 195 197 194 191 195 195 205 195 187 194 198 199 200 195 193 193 173 181 188 191 219 235 250 251 221 210 219 225 231 204 237 242 251 256 279 284 292 302 308 305 298 283 282 303 294 297 310 304 308
202 200 195 192 193 192 189 187 194 187 185 188 187 190 198 199 198 198 193 188 173 184 196 190 200 204 225 189 173 185 195 226 252 246 251 278 277 284 269 258 275 297 306 318 316 311 307 305 311 297 299 312
204 200 201 195 189 190 189 188 194 192 191 185 177 185 187 191 190 187 193 191 196 187 182 177 187 225 192 248 158 202 190 200 221 221 253 261 264 300 290 323 314 33 307 302 296 299 310 310 308 306 311 327
203 200 201 200 196 194 187 195 198 194 185 178 185 186 193 181 181 185 182 187 187 196 181 184 196 201 174 207 204 206 188 222 246 332 303 277 259 262 298 310 308 303 291 306 299 305 310 303 303 303 319 341
199 200 202 204 202 194 197 204 203 192 170 195 196 183 199 183 177 174 185 186 190 206 195 202 223 183 185 176 221 196 216 230 158 210 228 277 145 184 219 273 292 305 330 332 313 306 301 296 297 298 327 4
203 203 206 206 198 197 210 213 208 181 192 200 191 198 194 181 177 185 167 185 189 194 195 204 224 228 213 194 188 198 206 225 175 144 209 252 237 209 251 274 273 298 316 294 301 300 292 290 291 296 29 3
196 194 193 191 183 202 210 214 201 199 204 187 197 201 186 185 178 199 173 172 184 195 197 199 208 229 218 185 175 195 232 249 231 202 213 245 258 307 283 187 243 260 272 298 306 283 281 283 292 317 40 21
187 186 189 203 201 203 203 205 202 201 199 191 197 194 192 190 186 213 195 176 171 192 194 204 219 227 215 163 180 206 233 241 219 204 209 198 146 232 281 335 218 27 302 340 322 288 293 315 304 49 348 84
192 192 191 184 188 184 197 201 201 207 207 198 192 193 191 193 197 189 191 179 173 186 188 206 221 228 218 177 200 209 206 218 214 195 193 185 185 182 251 331 23 357 347 34 354 335 343 231 327 19 76 25
200 195 192 191 190 189 197 211 201 197 194 188 187 189 193 193 190 186 212 174 182 192 199 210 213 217 204 191 171 213 234 217 224 215 215 181 186 128 104 82 40 41 53 10 318 290 346 3 353 335 10 9
200 194 195 199 192 200 181 179 191 201 216 194 166 186 187 196 195 184 182 187 192 203 206 203 211 199 177 181 189 210 227 225 221 182 162 151 165 133 116 114 93 64 81 87 334 6 16 311 46 322 19 340
186 167 151 125 79 126 116 80 158 167 191 197 184 163 178 204 199 220 200 181 188 184 203 192 194 195 199 197 200 194 196 166 151 133 140 148 144 156 135 134 134 54 35 130 22 71 251 113 344 245 306 339
178 180 175 168 169 170 190 194 173 187 186 177 187 182 184 192 188 190 202 188 174 183 190 199 202 206 195 190 177 162 133 116 116 131 142 152 144 136 121 122 136 126 43 66 65 52 32 357 266 275 314 297
180 186 187 187 191 191 192 199 203 191 184 182 194 184 180 183 164 170 178 181 182 153 143 150 151 131 126 124 115 119 127 128 140 139 133 137 116 123 140 145 128 144 154 103 67 66 49 58 54 88 272 263